Weather History for Manitowoc, WI

Change the Weather History Date:

Saturday, April 13, 2013

  Actual Average Record
Temperature  
Mean Temperature 34 °F -  
Max Temperature 39 °F 51 °F 75 °F (1977)
Min Temperature 32 °F 33 °F 19 °F (1950)
Degree Days  
Heating Degree Days 30    
Moisture  
Dew Point 26 °F    
Average Humidity 72    
Maximum Humidity 87    
Minimum Humidity 52    
Precipitation  
Precipitation 0.00 in - - ()
Sea Level Pressure  
Sea Level Pressure 29.82 in    
Wind  
Wind Speed 10 mph (WSW)    
Max Wind Speed 21 mph    
Max Gust Speed 26 mph    
Visibility 9 miles    
Events      
Averages and records for this station are not official NWS values.
T = Trace of Precipitation, MM = Missing Value Source: NWS Daily Summary

Daily Weather History Graph

Daily Weather History Graph

Search for Another Location

Airport:

Trip Planner

Search our weather history database for the weather conditions in past years. The results will help you decide how hot, cold, wet, or windy it might be!

Date:

Astronomy

Apr. 13, 2013 Rise Set
Actual Time 6:10 AM CDT 7:32 PM CDT
Civil Twilight 5:40 AM CDT 8:02 PM CDT
Nautical Twilight 5:04 AM CDT 8:39 PM CDT
Astronomical Twilight 4:25 AM CDT 9:17 PM CDT
Moon 7:55 AM CDT (4/13) 11:02 PM CDT (4/13)
Length of Visible Light 14h 22m
Length of Day
13h 22m
Waxing Crescent, 10% of the Moon is Illuminated
Apr 13
Waxing Crescent
Apr 18
First Quarter
Apr 25
Full
May 2
Last Quarter
May 9
New

Hourly Weather History & Observations

Time (CDT) Temp. Windchill Dew Point Humidity Pressure Visibility Wind Dir Wind Speed Gust Speed Precip Events Conditions
12:15 AM 33.8 °F 29.6 °F 30.2 °F 87% 29.75 in 9.0 mi SW 4.6 mph - N/A   Overcast
12:35 AM 33.8 °F 28.6 °F 30.2 °F 87% 29.76 in 8.0 mi SW 5.8 mph - N/A   Overcast
12:55 AM 33.8 °F 29.6 °F 30.2 °F 87% 29.76 in 7.0 mi SW 4.6 mph - N/A   Overcast
1:15 AM 33.8 °F 29.6 °F 30.2 °F 87% 29.75 in 4.0 mi SW 4.6 mph - N/A   Overcast
1:35 AM 33.8 °F 28.6 °F 30.2 °F 87% 29.75 in 7.0 mi SW 5.8 mph - N/A   Overcast
1:55 AM 33.8 °F 29.6 °F 30.2 °F 87% 29.74 in 8.0 mi WSW 4.6 mph - N/A   Overcast
2:15 AM 33.8 °F 27.7 °F 30.2 °F 87% 29.74 in 10.0 mi SW 6.9 mph - N/A   Overcast
2:35 AM 33.8 °F 27.0 °F 30.2 °F 87% 29.74 in 10.0 mi WSW 8.1 mph - N/A   Overcast
2:55 AM 33.8 °F 27.0 °F 30.2 °F 87% 29.74 in 10.0 mi WSW 8.1 mph - N/A   Overcast
3:15 AM 33.8 °F 27.0 °F 28.4 °F 81% 29.74 in 10.0 mi WSW 8.1 mph - N/A   Overcast
3:35 AM 33.8 °F 25.8 °F 28.4 °F 81% 29.73 in 10.0 mi WSW 10.4 mph - N/A   Overcast
3:55 AM 33.8 °F 26.4 °F 28.4 °F 81% 29.73 in 10.0 mi WSW 9.2 mph - N/A   Overcast
4:15 AM 33.8 °F 27.7 °F 28.4 °F 81% 29.74 in 10.0 mi SW 6.9 mph - N/A   Overcast
4:35 AM 33.8 °F 27.0 °F 28.4 °F 81% 29.73 in 5.0 mi WSW 8.1 mph - N/A   Overcast
4:55 AM 33.8 °F 27.0 °F 28.4 °F 81% 29.73 in 4.0 mi WSW 8.1 mph - N/A   Overcast
5:15 AM 33.8 °F 27.7 °F 30.2 °F 87% 29.73 in 5.0 mi SW 6.9 mph - N/A   Overcast
5:35 AM 33.8 °F 27.7 °F 28.4 °F 81% 29.73 in 5.0 mi WSW 6.9 mph - N/A   Overcast
5:55 AM 33.8 °F 25.8 °F 28.4 °F 81% 29.73 in 5.0 mi WSW 10.4 mph - N/A   Overcast
6:15 AM 33.8 °F 25.8 °F 28.4 °F 81% 29.73 in 5.0 mi WSW 10.4 mph 16.1 mph N/A   Overcast
6:35 AM 33.8 °F 24.8 °F 28.4 °F 81% 29.73 in 10.0 mi WSW 12.7 mph 17.3 mph N/A   Overcast
6:55 AM 33.8 °F 25.8 °F 28.4 °F 81% 29.73 in 8.0 mi West 10.4 mph - N/A   Overcast
7:15 AM 33.8 °F 24.3 °F 28.4 °F 81% 29.74 in 9.0 mi West 13.8 mph - N/A   Overcast
7:35 AM 33.8 °F 23.9 °F 26.6 °F 75% 29.75 in 10.0 mi West 15.0 mph 21.9 mph N/A   Overcast
7:55 AM 33.8 °F 24.8 °F 26.6 °F 75% 29.75 in 10.0 mi West 12.7 mph 19.6 mph N/A   Overcast
8:15 AM 33.8 °F 24.8 °F 26.6 °F 75% 29.76 in 10.0 mi West 12.7 mph - N/A   Overcast
8:35 AM 33.8 °F 24.8 °F 26.6 °F 75% 29.76 in 10.0 mi West 12.7 mph 20.7 mph N/A   Overcast
8:55 AM 33.8 °F 24.3 °F 26.6 °F 75% 29.76 in 10.0 mi West 13.8 mph - N/A   Overcast
9:15 AM 32.0 °F 22.1 °F 26.6 °F 80% 29.77 in 10.0 mi West 13.8 mph 21.9 mph N/A   Overcast
9:35 AM 32.0 °F 22.5 °F 26.6 °F 80% 29.77 in 10.0 mi WNW 12.7 mph 18.4 mph N/A   Overcast
9:55 AM 33.8 °F 23.2 °F 26.6 °F 75% 29.78 in 10.0 mi West 17.3 mph 24.2 mph N/A   Overcast
10:15 AM 33.8 °F 23.5 °F 24.8 °F 70% 29.78 in 10.0 mi WNW 16.1 mph 23.0 mph N/A   Mostly Cloudy
10:35 AM 35.6 °F 26.6 °F 24.8 °F 65% 29.79 in 10.0 mi WSW 13.8 mph 17.3 mph N/A   Mostly Cloudy
10:55 AM 33.8 °F 22.8 °F 24.8 °F 70% 29.79 in 10.0 mi West 18.4 mph 26.5 mph N/A   Mostly Cloudy
11:15 AM 35.6 °F 25.9 °F 24.8 °F 65% 29.80 in 10.0 mi West 16.1 mph 24.2 mph N/A   Mostly Cloudy
11:35 AM 35.6 °F 25.5 °F 24.8 °F 65% 29.80 in 10.0 mi West 17.3 mph 25.3 mph N/A   Mostly Cloudy
11:55 AM 35.6 °F 25.9 °F 23.0 °F 60% 29.81 in 10.0 mi West 16.1 mph 25.3 mph N/A   Mostly Cloudy
12:15 PM 37.4 °F 28.2 °F 23.0 °F 56% 29.81 in 10.0 mi West 16.1 mph 21.9 mph N/A   Mostly Cloudy
12:35 PM 37.4 °F 27.5 °F 24.8 °F 60% 29.81 in 10.0 mi West 18.4 mph 26.5 mph N/A   Mostly Cloudy
12:55 PM 35.6 °F 26.2 °F 23.0 °F 60% 29.82 in 10.0 mi West 15.0 mph 24.2 mph N/A   Overcast
1:15 PM 37.4 °F 26.9 °F 21.2 °F 52% 29.82 in 10.0 mi West 20.7 mph 25.3 mph N/A   Overcast
1:35 PM 37.4 °F 28.9 °F 21.2 °F 52% 29.83 in 10.0 mi West 13.8 mph 25.3 mph N/A   Overcast
1:55 PM 37.4 °F 26.9 °F 21.2 °F 52% 29.83 in 10.0 mi West 20.7 mph 24.2 mph N/A   Overcast
2:15 PM 37.4 °F 27.8 °F 21.2 °F 52% 29.84 in 10.0 mi WSW 17.3 mph 25.3 mph N/A   Overcast
2:35 PM 37.4 °F 28.2 °F 21.2 °F 52% 29.85 in 10.0 mi West 16.1 mph 21.9 mph N/A   Overcast
2:55 PM 37.4 °F 27.2 °F 21.2 °F 52% 29.85 in 10.0 mi West 19.6 mph 26.5 mph N/A   Overcast
3:15 PM 37.4 °F 28.2 °F 23.0 °F 56% 29.85 in 10.0 mi WSW 16.1 mph 21.9 mph N/A   Overcast
3:35 PM 37.4 °F 28.5 °F 21.2 °F 52% 29.85 in 10.0 mi West 15.0 mph 26.5 mph N/A   Overcast
3:55 PM 37.4 °F 28.5 °F 23.0 °F 56% 29.85 in 10.0 mi WSW 15.0 mph - N/A   Overcast
4:15 PM 37.4 °F 28.2 °F 23.0 °F 56% 29.85 in 10.0 mi West 16.1 mph 21.9 mph N/A   Overcast
4:35 PM 37.4 °F 28.2 °F 24.8 °F 60% 29.86 in 10.0 mi WSW 16.1 mph 21.9 mph N/A   Mostly Cloudy
4:55 PM 37.4 °F 28.5 °F 24.8 °F 60% 29.86 in 10.0 mi WSW 15.0 mph 21.9 mph N/A   Mostly Cloudy
5:15 PM 37.4 °F 28.9 °F 24.8 °F 60% 29.87 in 10.0 mi SW 13.8 mph 20.7 mph N/A   Mostly Cloudy
5:35 PM 37.4 °F 29.8 °F 26.6 °F 65% 29.87 in 10.0 mi WSW 11.5 mph 17.3 mph N/A   Mostly Cloudy
5:55 PM 37.4 °F 28.5 °F 26.6 °F 65% 29.88 in 10.0 mi WSW 15.0 mph - N/A   Overcast
6:15 PM 35.6 °F 26.2 °F 26.6 °F 70% 29.89 in 10.0 mi WSW 15.0 mph 18.4 mph N/A   Overcast
6:35 PM 35.6 °F 26.2 °F 28.4 °F 75% 29.89 in 10.0 mi WSW 15.0 mph 18.4 mph N/A   Mostly Cloudy
7:15 PM 35.6 °F 28.0 °F 26.6 °F 70% 29.90 in 10.0 mi WSW 10.4 mph 17.3 mph N/A   Overcast
7:35 PM 35.6 °F 28.0 °F 26.6 °F 70% 29.90 in 10.0 mi WSW 10.4 mph - N/A   Overcast
7:55 PM 35.6 °F 28.6 °F 26.6 °F 70% 29.91 in 10.0 mi WSW 9.2 mph - N/A   Overcast
8:15 PM 35.6 °F 27.5 °F 26.6 °F 70% 29.92 in 10.0 mi WSW 11.5 mph - N/A   Overcast
8:35 PM 35.6 °F 28.0 °F 26.6 °F 70% 29.92 in 10.0 mi WSW 10.4 mph - N/A   Overcast
8:55 PM 35.6 °F 28.0 °F 26.6 °F 70% 29.93 in 10.0 mi WSW 10.4 mph - N/A   Overcast
9:15 PM 35.6 °F 28.6 °F 26.6 °F 70% 29.94 in 10.0 mi WSW 9.2 mph - N/A   Overcast
9:35 PM 35.6 °F 29.9 °F 26.6 °F 70% 29.94 in 10.0 mi WSW 6.9 mph - N/A   Mostly Cloudy
9:55 PM 33.8 °F 27.7 °F 26.6 °F 75% 29.94 in 10.0 mi WSW 6.9 mph - N/A   Mostly Cloudy
10:15 PM 33.8 °F 27.7 °F 26.6 °F 75% 29.95 in 10.0 mi WSW 6.9 mph - N/A   Partly Cloudy
10:35 PM 33.8 °F 27.0 °F 26.6 °F 75% 29.95 in 10.0 mi WSW 8.1 mph - N/A   Mostly Cloudy
10:55 PM 33.8 °F 27.0 °F 26.6 °F 75% 29.96 in 10.0 mi West 8.1 mph - N/A   Overcast
11:15 PM 33.8 °F 26.4 °F 26.6 °F 75% 29.96 in 10.0 mi WSW 9.2 mph - N/A   Overcast
11:35 PM 33.8 °F 26.4 °F 26.6 °F 75% 29.97 in 10.0 mi West 9.2 mph - N/A   Overcast
11:55 PM 33.8 °F 27.7 °F 26.6 °F 75% 29.97 in 10.0 mi West 6.9 mph - N/A   Scattered Clouds